Location: Nitra
(48.3167°N, 18.0833°E)
Time: 18:09:49
(UTC+01:00)

STARLINK-1575 - Pass Details

Date: 24 September 2020
Orbit: 378 x 381 km, 53.0° (Epoch: 30 October)

Event Time Altitude Azimuth Distance (km) Brightness Sun altitude
Exits shadow 05:03:54 21° 313° (NW) 976 4.6 -16.1°
Maximum altitude 05:05:36 38° 8° (N) 651 4.2 -15.9°
Drops below altitude 10° 05:08:44 10° 79° (E) 1,481 7.2 -15.4°
Sets 05:10:55 0° 88° (E) 2,341 8.5 -15.0°
